Regional Weather Roundup
Issued by NWS

Home | Current Version | Previous Version | Text Only | Print | Product List | Glossary On
Versions: 1 2 3 4 5 6 7 8 9 10 11 12 13 14 15 16 17 18 19 20 21 22 23 24 25 26 27 28 29 30 31 32 33 34 35 36 37 38 39 40 41 42 43 44 45 46 47 48 49 50
000
ASUS44 KFWD 230203
RWRTX
NORTH TEXAS HOURLY WEATHER ROUNDUP
NATIONAL WEATHER SERVICE FORT WORTH TX
900 PM CDT THU JUN 22 2017

NOTE: "FAIR" INDICATES FEW OR NO CLOUDS BELOW 12,000 FEET WITH NO
SIGNIFICANT WEATHER AND/OR OBSTRUCTIONS TO VISIBILITY.

TXZ118-119-230300-
DALLAS/FORT WORTH METROPLEX

CITY           SKY/WX    TMP DP  RH WIND       PRES   REMARKS
DFW AIRPORT    CLOUDY    85  73  67 S6        29.63S HX  91
DALLAS LOVE    CLOUDY    88  71  57 S3        29.64R HX  94
FTW MEACHAM    PTCLDY    86  72  62 SE6       29.64S HX  92
DAL-EXECUTIVE  CLOUDY    81  74  79 CALM      29.65R
FTW-ALLIANCE   MOCLDY    83  72  69 E5        29.64S
FTW-NAS-JRB    CLOUDY    88  69  53 E5        29.64S HX  92
FTW-SPINKS     PTCLDY    82  72  71 SE5       29.67S
ARLINGTON      PTCLDY    83  74  74 SE6       29.65S
GRAND PRAIRIE  CLEAR     88  72  58 SE3       29.65S HX  94
ADDISON        CLEAR     88  72  58 CALM      29.64S HX  94
MESQUITE       PTCLDY    83  72  69 CALM      29.65R
LANCASTER      PTCLDY    83  73  69 CALM      29.66R
$$

TXZ091>094-102>105-117-120-121-131>134-230300-
NORTH CENTRAL TEXAS

CITY           SKY/WX    TMP DP  RH WIND       PRES   REMARKS
SHRMAN/DENISON CLOUDY    83  71  65 CALM      29.66R
GAINESVILLE    CLEAR     80  71  74 CALM      29.67S
BOWIE          CLEAR     81  72  75 E3        29.66S
BRIDGEPORT     CLEAR     82  69  66 SE3       29.67R
DECATUR        CLEAR     82  71  70 E5        29.66S
DENTON         CLEAR     84  73  69 SE3       29.64S HX  90
MCKINNEY       PTCLDY    83  74  74 E3        29.64S
BONHAM         CLEAR     81  73  78 W3        29.64S
GREENVILLE     PTCLDY    84  75  74 CALM      29.64S HX  92
ROCKWALL       PTCLDY    83  74  73 CALM      29.65S HX  90
TERRELL        PTCLDY    82  74  76 S3        29.65R
WAXAHACHIE     PTCLDY    80  74  81 CALM      29.67R
CLEBURNE       PTCLDY    82  75  78 SE6       29.68S
GRANBURY       PTCLDY    87  71  59 SE7       29.66S HX  92
$$

TXZ083>090-098>101-113>116-127>130-139>142-154-155-230300-
WESTERN NORTH TEXAS

CITY           SKY/WX    TMP DP  RH WIND       PRES   REMARKS
WICHITA FALLS  CLEAR     84  69  60 SE9       29.64R
WF-KICKAPOO    CLEAR     86  69  56 SE6       29.66S HX  90
VERNON         CLEAR     90  52  27 SE8       29.64S
ABILENE        CLEAR     86  61  42 SE8       29.68R
ABILENE-DYESS  CLEAR     91  63  39 SE10      29.66R HX  92
BRECKENRIDGE   CLEAR     88  59  37 S5        29.66R
CISCO          CLEAR     82  64  54 SE8       29.69S
EASTLAND       CLEAR     83  66  56 SE7       29.68R
RANGER         CLEAR     80  67  64 S7        29.68S
MINERAL WELLS  PTCLDY    83  70  64 SE7       29.64R
STEPHENVILLE   CLEAR     83  67  56 CALM      29.70S
COMANCHE       CLEAR     82  64  53 E5        29.68S
BROWNWOOD      CLEAR     84  59  42 E3        29.68R
COLEMAN        CLEAR     88  56  32 E6        29.69R
$$

TXZ143>147-156>162-174-175-230300-
CENTRAL TEXAS

CITY           SKY/WX    TMP DP  RH WIND       PRES   REMARKS
WACO           CLOUDY    84  74  71 E6        29.65S HX  91
WACO-TSTC      CLEAR     82  73  74 CALM      29.66S
WACO-MCGREGOR  CLOUDY    84  73  69 SE9       29.66S HX  90
HILLSBORO      MOCLDY    81  75  83 SE5       29.67R
CORSICANA      CLOUDY    83  74  74 S5        29.67R
MEXIA          CLEAR     80  73  77 S9        29.66S
HEARNE         PTCLDY    81  78  91 SE3       29.68R HX  90
CAMERON        MOCLDY    83  74  76 SE6       29.67R
TEMPLE         MOCLDY    85  72  65 E8        29.67R HX  91
KILLEEN        PTCLDY    87  70  55 SE9       29.66R HX  92
KILLEEN-SKYLRK MOCLDY    87  71  58 E9        29.67R HX  93
FORT HOOD      PTCLDY   N/A N/A N/A SE14      29.64R
HAMILTON       CLEAR     85  69  58 SE6       29.69S
LAMPASAS       CLEAR     83  67  57 CALM      29.67S
$$

TXZ095>097-106>112-122>126-135>138-148>153-164>167-230300-
EAST TEXAS

CITY           SKY/WX    TMP DP  RH WIND       PRES   REMARKS
PARIS            N/A     83  74  74 CALM      29.64R
SULPHUR SPRNGS PTCLDY    83  76  78 CALM      29.66R HX  91
MOUNT PLEASANT CLOUDY    79  78  96 CALM      29.64R
GILMER         CLOUDY    79  77  94 CALM      29.64R
MINEOLA        CLOUDY    81  77  89 CALM      29.64R
TYLER          CLOUDY    81  78  91 S7        29.65S
LONGVIEW       MOCLDY    79  78  97 SW10      29.63R
MARSHALL       CLOUDY    76  73  91 SW8       29.66R
ATHENS         MOCLDY    79  77  94 S6        29.65S
PALESTINE      CLOUDY    78  77  95 S3        29.68S
JACKSONVILLE   CLOUDY    77  76  98 S6        29.70S
HENDERSON      CLOUDY    77  76  96 S3        29.67R
CENTER         CLOUDY    80  78  95 S8        29.69R
NACOGDOCHES    CLOUDY    77  73  88 MISG      29.66F
LUFKIN         LGT RAIN  77  76  96 S5        29.69R
$$

SUPPLEMENTAL OBSERVATIONS (NWS FORT WORTH AREA)

CITY           SKY/WX    TMP DP  RH WIND       PRES   REMARKS
$$

SUPPLEMENTAL OBSERVATIONS (NWS NORMAN AREA)

CITY           SKY/WX    TMP DP  RH WIND       PRES   REMARKS
GOODLETT         N/A     91  56  30 E10       29.63R
ODELL            N/A     87  62  41 E9        29.65R
CROWELL          N/A     89  62  40 SE8       29.64S
KNOX CITY        N/A     92  53  26 SE8       29.65R HX  90
SEYMOUR          N/A     91  65  41 SE7       29.65R HX  93
$$

SUPPLEMENTAL OBSERVATIONS (NWS SAN ANGELO AREA)

CITY           SKY/WX    TMP DP  RH WIND       PRES   REMARKS
HASKELL          N/A     91  51  25 SE6       29.65S
THROCKMORTON     N/A     85  65  52 E5        29.67R
STAMFORD         N/A     91  58  33 SE10      29.66S
CLYDE            N/A     86  61  42 SE6       29.71S
$$

SUPPLEMENTAL OBSERVATIONS (NWS SHREVEPORT AREA)

CITY           SKY/WX    TMP DP  RH WIND       PRES   REMARKS
$$

SUPPLEMENTAL OBSERVATIONS ARE A COLLECTION OF AUTOMATED INSTRUMENTS
THAT ARE MAINTAINED BY A VARIETY OF FEDERAL AND STATE AGENCIES.
CERTAIN ELEMENTS...SUCH AS HUMIDITY VALUES AND SUSTAINED WIND
SPEEDS...MAY BE APPROXIMATED.





USA.gov is the U.S. government's official web portal to all federal, state and local government web resources and services.